Time,TemperatureF,DewpointF,PressureIn,WindDirection,WindDirectionDegrees,WindSpeedMPH,WindSpeedGustMPH,Humidity,HourlyPrecipIn,Conditions,Clouds,dailyrainin,SoftwareType,DateUTC
2013-01-31 00:00:00,54.7,54.7,29.31,WSW,241,9.5,21.0,100,0.12,,RA,0.00,VWS V13.01,2013-01-31 05:00:00,
2013-01-31 00:01:00,54.9,54.9,29.31,WSW,250,12.6,21.0,100,0.11,,-RA,0.00,VWS V13.01,2013-01-31 05:01:00,
2013-01-31 00:03:00,54.5,52.8,29.31,WSW,253,10.1,16.5,94,0.11,,-RA,0.00,VWS V13.01,2013-01-31 05:03:00,
2013-01-31 00:08:00,54.5,48.1,29.31,SW,225,9.5,12.0,79,0.08,,-RA,0.00,VWS V13.01,2013-01-31 05:08:00,
2013-01-31 00:13:00,54.3,47.6,29.31,WSW,254,5.0,10.9,78,0.04,,-RA,0.00,VWS V13.01,2013-01-31 05:13:00,
2013-01-31 00:18:00,54.1,46.8,29.31,SW,227,3.9,5.0,76,0.03,,-RA,0.00,VWS V13.01,2013-01-31 05:18:00,
2013-01-31 00:23:00,53.8,46.0,29.28,SW,219,3.4,7.3,75,0.03,,-RA,0.01,VWS V13.01,2013-01-31 05:23:00,
2013-01-31 00:28:00,53.8,46.0,29.28,West,267,5.0,5.0,75,0.03,,-RA,0.01,VWS V13.01,2013-01-31 05:28:00,
2013-01-31 00:33:00,54.0,45.2,29.28,WSW,258,7.3,12.6,72,0.02,,-RA,0.01,VWS V13.01,2013-01-31 05:33:00,
2013-01-31 00:38:00,54.0,44.8,29.31,West,262,7.8,10.1,71,0.02,,-RA,0.01,VWS V13.01,2013-01-31 05:38:00,
2013-01-31 00:43:00,53.8,43.1,29.31,South,170,10.3,13.1,67,0.02,,-RA,0.01,VWS V13.01,2013-01-31 05:43:00,
2013-01-31 00:48:00,53.6,43.3,29.31,West,270,10.9,13.1,68,0.03,,-RA,0.02,VWS V13.01,2013-01-31 05:48:00,
2013-01-31 00:53:00,53.2,43.3,29.31,SSW,208,10.1,10.9,69,0.04,,-RA,0.03,VWS V13.01,2013-01-31 05:53:00,
2013-01-31 00:58:00,52.9,43.0,29.31,WSW,237,12.0,12.0,69,0.04,,-RA,0.03,VWS V13.01,2013-01-31 05:58:00,
2013-01-31 01:03:00,52.9,42.6,29.31,SSW,195,12.0,13.7,68,0.03,,RA,0.03,VWS V13.01,2013-01-31 06:03:00,
2013-01-31 01:08:00,52.9,42.2,29.31,WSW,241,6.2,10.1,67,0.04,,RA,0.04,VWS V13.01,2013-01-31 06:08:00,
2013-01-31 01:13:00,52.7,42.1,29.31,West,264,10.9,12.6,67,0.04,,RA,0.04,VWS V13.01,2013-01-31 06:13:00,
2013-01-31 01:18:00,52.7,41.7,29.31,SW,223,6.2,9.5,66,0.04,,RA,0.04,VWS V13.01,2013-01-31 06:18:00,
2013-01-31 01:23:00,52.9,41.5,29.28,WSW,244,5.0,7.8,65,0.04,,-RA,0.04,VWS V13.01,2013-01-31 06:23:00,
2013-01-31 01:28:00,52.9,41.0,29.28,WSW,250,15.9,15.9,64,0.03,,-RA,0.04,VWS V13.01,2013-01-31 06:28:00,
2013-01-31 01:33:00,52.9,41.0,29.28,West,268,12.0,17.1,64,0.04,,-RA,0.06,VWS V13.01,2013-01-31 06:33:00,
2013-01-31 01:38:00,52.7,40.9,29.25,West,270,4.5,10.9,64,0.04,,-RA,0.06,VWS V13.01,2013-01-31 06:38:00,
2013-01-31 01:43:00,52.5,40.7,29.25,WSW,252,9.5,15.9,64,0.04,,RA,0.06,VWS V13.01,2013-01-31 06:43:00,
2013-01-31 01:48:00,52.3,40.5,29.25,WSW,253,10.3,10.3,64,0.03,,RA,0.06,VWS V13.01,2013-01-31 06:48:00,
2013-01-31 01:53:00,52.2,40.4,29.28,West,265,10.1,21.8,64,0.02,,RA,0.06,VWS V13.01,2013-01-31 06:53:00,
2013-01-31 01:58:00,52.0,40.2,29.28,West,259,9.5,10.9,64,0.02,,RA,0.06,VWS V13.01,2013-01-31 06:58:00,
2013-01-31 02:03:00,51.8,39.2,29.28,WSW,237,10.1,13.1,62,0.02,,OVC110,0.06,VWS V13.01,2013-01-31 07:03:00,
2013-01-31 02:08:00,51.6,39.0,29.31,SW,228,3.4,10.9,62,0.01,,OVC110,0.06,VWS V13.01,2013-01-31 07:08:00,
2013-01-31 02:13:00,51.6,38.2,29.31,West,259,10.1,16.5,60,0.01,,OVC110,0.06,VWS V13.01,2013-01-31 07:13:00,
2013-01-31 02:18:00,51.3,38.3,29.31,WSW,252,8.9,13.7,61,0.01,,OVC110,0.06,VWS V13.01,2013-01-31 07:18:00,
2013-01-31 02:23:00,51.1,37.7,29.28,South,174,7.8,15.9,60,0.01,,BKN120,0.06,VWS V13.01,2013-01-31 07:23:00,
2013-01-31 02:28:00,50.7,37.4,29.28,South,178,6.2,13.1,60,0.01,,BKN120,0.06,VWS V13.01,2013-01-31 07:28:00,
2013-01-31 02:33:00,50.5,37.2,29.28,SW,220,12.6,13.1,60,0.00,,BKN120,0.06,VWS V13.01,2013-01-31 07:33:00,
2013-01-31 02:38:00,50.2,36.8,29.31,SW,220,6.7,9.5,60,0.00,,BKN120,0.06,VWS V13.01,2013-01-31 07:38:00,
2013-01-31 02:43:00,50.2,36.8,29.31,WSW,248,10.1,10.9,60,0.00,,CLR,0.06,VWS V13.01,2013-01-31 07:43:00,
2013-01-31 02:48:00,50.0,36.2,29.31,West,280,7.3,16.5,59,0.00,,CLR,0.06,VWS V13.01,2013-01-31 07:48:00,
2013-01-31 02:53:00,49.8,37.3,29.31,West,262,19.3,27.4,62,0.00,,CLR,0.06,VWS V13.01,2013-01-31 07:53:00,
2013-01-31 02:58:00,48.6,34.0,29.31,West,259,16.5,18.7,57,0.00,,CLR,0.06,VWS V13.01,2013-01-31 07:58:00,
2013-01-31 03:03:00,47.7,33.2,29.31,West,279,12.0,13.7,57,0.00,,SCT044,0.06,VWS V13.01,2013-01-31 08:03:00,
2013-01-31 03:08:00,46.9,32.1,29.34,West,262,4.5,10.1,56,0.00,,SCT044,0.06,VWS V13.01,2013-01-31 08:08:00,
2013-01-31 03:13:00,46.4,31.6,29.34,West,265,7.8,9.5,56,0.00,,SCT044,0.06,VWS V13.01,2013-01-31 08:13:00,
2013-01-31 03:18:00,46.0,30.8,29.34,West,262,10.9,13.1,55,0.00,,SCT044,0.06,VWS V13.01,2013-01-31 08:18:00,
2013-01-31 03:23:00,45.9,30.6,29.34,West,274,4.5,10.9,55,0.00,,-RA,0.06,VWS V13.01,2013-01-31 08:23:00,
2013-01-31 03:28:00,45.5,30.3,29.34,West,274,7.8,9.5,55,0.00,,-RA,0.06,VWS V13.01,2013-01-31 08:28:00,
2013-01-31 03:33:00,45.1,30.0,29.34,WSW,249,6.7,10.1,55,0.00,,-RA,0.06,VWS V13.01,2013-01-31 08:33:00,
2013-01-31 03:38:00,45.1,30.0,29.34,West,262,7.3,7.8,55,0.00,,-RA,0.06,VWS V13.01,2013-01-31 08:38:00,
2013-01-31 03:43:00,45.1,29.5,29.34,WSW,250,4.5,9.5,54,0.00,,SCT065,0.06,VWS V13.01,2013-01-31 08:43:00,
2013-01-31 03:48:00,45.1,29.5,29.34,West,272,4.5,7.8,54,0.00,,SCT065,0.06,VWS V13.01,2013-01-31 08:48:00,
2013-01-31 03:53:00,45.1,29.5,29.37,West,265,5.0,10.1,54,0.00,,SCT065,0.06,VWS V13.01,2013-01-31 08:53:00,
2013-01-31 03:58:00,45.0,29.3,29.37,NW,320,7.3,7.3,54,0.00,,SCT065,0.06,VWS V13.01,2013-01-31 08:58:00,
2013-01-31 04:03:00,44.8,29.2,29.37,West,274,12.6,18.7,54,0.00,,BKN065,0.06,VWS V13.01,2013-01-31 09:03:00,
2013-01-31 04:08:00,44.8,29.2,29.37,WNW,290,18.7,18.7,54,0.00,,BKN065,0.06,VWS V13.01,2013-01-31 09:08:00,
2013-01-31 04:13:00,44.8,29.2,29.37,WSW,243,15.9,19.9,54,0.00,,BKN065,0.06,VWS V13.01,2013-01-31 09:13:00,
2013-01-31 04:18:00,44.4,28.8,29.37,WNW,295,10.1,14.3,54,0.00,,BKN065,0.06,VWS V13.01,2013-01-31 09:18:00,
2013-01-31 04:23:00,44.2,28.7,29.37,West,265,15.9,16.5,54,0.00,,BKN095,0.06,VWS V13.01,2013-01-31 09:23:00,
2013-01-31 04:28:00,44.1,28.5,29.37,West,271,10.3,16.5,54,0.00,,BKN095,0.06,VWS V13.01,2013-01-31 09:28:00,
2013-01-31 04:33:00,43.9,28.3,29.37,WSW,240,7.3,10.3,54,0.00,,BKN095,0.06,VWS V13.01,2013-01-31 09:33:00,
2013-01-31 04:38:00,43.5,28.0,29.40,West,265,6.7,9.5,54,0.00,,BKN095,0.06,VWS V13.01,2013-01-31 09:38:00,
2013-01-31 04:43:00,43.0,27.5,29.40,West,264,9.5,14.3,54,0.00,,BKN095,0.06,VWS V13.01,2013-01-31 09:43:00,
2013-01-31 04:48:00,42.8,27.3,29.40,WSW,250,10.9,13.7,54,0.00,,BKN095,0.06,VWS V13.01,2013-01-31 09:48:00,
2013-01-31 04:53:00,42.8,25.9,29.43,West,274,16.5,21.8,51,0.00,,BKN095,0.06,VWS V13.01,2013-01-31 09:53:00,
2013-01-31 04:58:00,42.8,25.9,29.43,West,268,17.1,18.7,51,0.00,,BKN095,0.06,VWS V13.01,2013-01-31 09:58:00,
2013-01-31 05:03:00,42.6,26.2,29.43,West,276,10.3,20.4,52,0.00,,SCT070,0.06,VWS V13.01,2013-01-31 10:03:00,
2013-01-31 05:08:00,42.3,25.9,29.43,West,268,10.3,19.3,52,0.00,,SCT070,0.06,VWS V13.01,2013-01-31 10:08:00,
2013-01-31 05:13:00,41.7,25.4,29.43,WSW,237,16.5,18.7,52,0.00,,SCT070,0.06,VWS V13.01,2013-01-31 10:13:00,
2013-01-31 05:18:00,41.2,24.9,29.43,West,272,19.9,21.3,52,0.00,,SCT070,0.06,VWS V13.01,2013-01-31 10:18:00,
2013-01-31 05:23:00,40.8,24.6,29.46,WSW,248,10.9,19.3,52,0.00,,BKN050,0.06,VWS V13.01,2013-01-31 10:23:00,
2013-01-31 05:28:00,40.5,24.2,29.46,West,267,10.1,10.9,52,0.00,,BKN050,0.06,VWS V13.01,2013-01-31 10:28:00,
2013-01-31 05:33:00,40.3,22.7,29.46,WSW,254,13.1,18.2,49,0.00,,BKN050,0.06,VWS V13.01,2013-01-31 10:33:00,
2013-01-31 05:38:00,39.9,22.3,29.46,West,264,7.8,16.5,49,0.00,,BKN050,0.06,VWS V13.01,2013-01-31 10:38:00,
2013-01-31 05:43:00,39.7,22.2,29.46,West,263,10.9,12.6,49,0.00,,SCT060,0.06,VWS V13.01,2013-01-31 10:43:00,
2013-01-31 05:48:00,39.6,22.0,29.46,WNW,297,9.5,14.8,49,0.00,,SCT060,0.06,VWS V13.01,2013-01-31 10:48:00,
2013-01-31 05:53:00,39.4,21.8,29.49,WSW,258,10.1,10.9,49,0.00,,SCT060,0.06,VWS V13.01,2013-01-31 10:53:00,
2013-01-31 05:58:00,39.2,21.7,29.49,WSW,250,5.0,12.6,49,0.00,,SCT060,0.06,VWS V13.01,2013-01-31 10:58:00,
2013-01-31 06:03:00,39.0,22.0,29.49,West,265,12.0,16.5,50,0.00,,SCT049,0.06,VWS V13.01,2013-01-31 11:03:00,
2013-01-31 06:08:00,38.8,21.8,29.52,WNW,291,10.3,10.3,50,0.00,,SCT049,0.06,VWS V13.01,2013-01-31 11:08:00,
2013-01-31 06:13:00,38.7,21.6,29.52,WNW,291,16.5,16.5,50,0.00,,SCT049,0.06,VWS V13.01,2013-01-31 11:13:00,
2013-01-31 06:18:00,38.7,21.6,29.52,West,265,9.5,13.1,50,0.00,,SCT049,0.06,VWS V13.01,2013-01-31 11:18:00,
2013-01-31 06:23:00,38.5,21.5,29.52,WSW,257,13.7,15.4,50,0.00,,SCT055,0.06,VWS V13.01,2013-01-31 11:23:00,
2013-01-31 06:28:00,38.1,22.1,29.52,West,279,7.8,15.4,52,0.00,,SCT055,0.06,VWS V13.01,2013-01-31 11:28:00,
2013-01-31 06:33:00,37.8,21.7,29.52,NW,306,10.3,13.7,52,0.00,,SCT055,0.06,VWS V13.01,2013-01-31 11:33:00,
2013-01-31 06:38:00,37.0,20.1,29.54,WSW,251,10.3,16.5,50,0.00,,SCT055,0.06,VWS V13.01,2013-01-31 11:38:00,
2013-01-31 06:43:00,36.9,20.0,29.54,WSW,258,15.4,15.9,50,0.00,,BKN055,0.06,VWS V13.01,2013-01-31 11:43:00,
2013-01-31 06:48:00,36.9,20.0,29.54,WSW,247,13.7,18.2,50,0.00,,BKN055,0.06,VWS V13.01,2013-01-31 11:48:00,
2013-01-31 06:53:00,36.7,19.8,29.54,West,266,15.9,16.5,50,0.00,,BKN055,0.06,VWS V13.01,2013-01-31 11:53:00,
2013-01-31 06:58:00,36.3,19.5,29.54,WSW,257,9.5,12.6,50,0.00,,BKN055,0.06,VWS V13.01,2013-01-31 11:58:00,
2013-01-31 07:03:00,36.0,19.1,29.54,WSW,255,9.5,10.9,50,0.00,,BKN048,0.06,VWS V13.01,2013-01-31 12:03:00,
2013-01-31 07:08:00,35.6,18.8,29.57,WSW,237,6.2,16.5,50,0.00,,BKN048,0.06,VWS V13.01,2013-01-31 12:08:00,
2013-01-31 07:13:00,35.4,19.1,29.57,WSW,238,10.9,16.5,51,0.00,,BKN048,0.06,VWS V13.01,2013-01-31 12:13:00,
2013-01-31 07:18:00,35.2,18.9,29.57,WSW,252,10.3,19.3,51,0.00,,BKN048,0.06,VWS V13.01,2013-01-31 12:18:00,
2013-01-31 07:23:00,35.1,18.8,29.57,West,280,10.9,15.9,51,0.00,,SCT050,0.06,VWS V13.01,2013-01-31 12:23:00,
2013-01-31 07:28:00,35.1,18.8,29.57,WSW,255,7.8,13.7,51,0.00,,SCT050,0.06,VWS V13.01,2013-01-31 12:28:00,
2013-01-31 07:33:00,35.1,18.8,29.57,WSW,256,6.2,12.6,51,0.00,,SCT050,0.06,VWS V13.01,2013-01-31 12:33:00,
2013-01-31 07:38:00,35.1,18.8,29.57,WNW,284,7.3,11.5,51,0.00,,SCT050,0.06,VWS V13.01,2013-01-31 12:38:00,
2013-01-31 07:44:00,35.2,18.9,29.57,West,262,7.3,15.4,51,0.00,,CLR,0.06,VWS V13.01,2013-01-31 12:44:00,
2013-01-31 07:49:00,35.4,19.1,29.57,West,265,7.3,7.3,51,0.00,,CLR,0.06,VWS V13.01,2013-01-31 12:49:00,
2013-01-31 07:54:00,35.8,19.0,29.57,West,266,6.7,9.5,50,0.00,,CLR,0.06,VWS V13.01,2013-01-31 12:54:00,
2013-01-31 07:59:00,36.1,19.3,29.57,West,261,10.1,10.9,50,0.00,,CLR,0.06,VWS V13.01,2013-01-31 12:59:00,
2013-01-31 08:04:00,36.3,19.5,29.57,West,281,10.9,18.7,50,0.00,,CLR,0.06,VWS V13.01,2013-01-31 13:04:00,
2013-01-31 08:09:00,36.1,19.3,29.60,West,262,15.4,15.4,50,0.00,,CLR,0.06,VWS V13.01,2013-01-31 13:09:00,
2013-01-31 08:14:00,36.7,19.8,29.60,West,266,7.8,10.9,50,0.00,,CLR,0.06,VWS V13.01,2013-01-31 13:14:00,
2013-01-31 08:19:00,36.5,18.7,29.60,WNW,295,15.9,18.2,48,0.00,,CLR,0.06,VWS V13.01,2013-01-31 13:19:00,
2013-01-31 08:24:00,36.9,19.0,29.60,West,268,15.9,16.5,48,0.00,,CLR,0.06,VWS V13.01,2013-01-31 13:24:00,
2013-01-31 08:29:00,37.0,19.2,29.60,WSW,254,16.5,16.5,48,0.00,,CLR,0.06,VWS V13.01,2013-01-31 13:29:00,
2013-01-31 08:34:00,36.9,19.0,29.60,WSW,258,15.4,24.0,48,0.00,,CLR,0.06,VWS V13.01,2013-01-31 13:34:00,
2013-01-31 08:39:00,36.7,18.9,29.60,NW,304,16.5,22.9,48,0.00,,CLR,0.06,VWS V13.01,2013-01-31 13:39:00,
2013-01-31 08:44:00,36.7,18.9,29.60,West,265,13.7,16.5,48,0.00,,SCT050,0.06,VWS V13.01,2013-01-31 13:44:00,
2013-01-31 08:49:00,37.0,19.2,29.60,WSW,257,10.3,15.4,48,0.00,,SCT050,0.06,VWS V13.01,2013-01-31 13:49:00,
2013-01-31 08:54:00,37.2,19.4,29.63,West,261,18.7,19.3,48,0.00,,SCT050,0.06,VWS V13.01,2013-01-31 13:54:00,
2013-01-31 08:59:00,37.6,19.2,29.63,West,271,7.3,10.3,47,0.00,,SCT050,0.06,VWS V13.01,2013-01-31 13:59:00,
2013-01-31 09:04:00,37.8,19.4,29.63,West,270,9.5,16.5,47,0.00,,SCT050,0.06,VWS V13.01,2013-01-31 14:04:00,
2013-01-31 09:09:00,37.9,19.5,29.63,West,268,10.1,14.8,47,0.00,,SCT050,0.06,VWS V13.01,2013-01-31 14:09:00,
2013-01-31 09:14:00,37.9,19.5,29.63,WSW,248,12.6,12.6,47,0.00,,SCT050,0.06,VWS V13.01,2013-01-31 14:14:00,
2013-01-31 09:19:00,38.7,20.2,29.63,WNW,283,10.3,10.9,47,0.00,,SCT050,0.06,VWS V13.01,2013-01-31 14:19:00,
2013-01-31 09:24:00,39.4,20.8,29.63,WSW,257,16.5,18.7,47,0.00,,SCT050,0.06,VWS V13.01,2013-01-31 14:24:00,
2013-01-31 09:29:00,39.2,20.7,29.63,WNW,288,10.1,17.6,47,0.00,,SCT050,0.06,VWS V13.01,2013-01-31 14:29:00,
2013-01-31 09:33:00,39.6,21.0,29.63,WNW,293,10.9,17.1,47,0.00,,SCT050,0.06,VWS V13.01,2013-01-31 14:33:00,
2013-01-31 09:38:00,39.7,21.2,29.66,SW,234,12.0,19.3,47,0.00,,SCT050,0.06,VWS V13.01,2013-01-31 14:38:00,
2013-01-31 09:43:00,40.1,21.5,29.66,WSW,256,12.6,14.8,47,0.00,,BKN050,0.06,VWS V13.01,2013-01-31 14:43:00,
2013-01-31 09:48:00,40.3,21.7,29.66,West,270,10.3,18.2,47,0.00,,BKN050,0.06,VWS V13.01,2013-01-31 14:48:00,
2013-01-31 09:54:00,40.3,21.7,29.66,West,262,10.3,10.9,47,0.00,,BKN050,0.06,VWS V13.01,2013-01-31 14:54:00,
2013-01-31 09:59:00,40.5,21.8,29.66,SW,230,9.5,15.4,47,0.00,,BKN050,0.06,VWS V13.01,2013-01-31 14:59:00,
2013-01-31 10:04:00,40.6,22.0,29.66,WNW,285,3.9,13.7,47,0.00,,BKN050,0.06,VWS V13.01,2013-01-31 15:04:00,
2013-01-31 10:09:00,41.0,22.3,29.66,West,260,10.1,21.0,47,0.00,,BKN050,0.06,VWS V13.01,2013-01-31 15:09:00,
2013-01-31 10:14:00,40.8,22.2,29.66,SW,233,13.1,15.9,47,0.00,,BKN050,0.06,VWS V13.01,2013-01-31 15:14:00,
2013-01-31 10:19:00,40.3,21.7,29.66,West,260,6.2,10.3,47,0.00,,BKN050,0.06,VWS V13.01,2013-01-31 15:19:00,
2013-01-31 10:24:00,39.7,21.2,29.69,WNW,288,12.6,13.1,47,0.00,,BKN060,0.06,VWS V13.01,2013-01-31 15:24:00,
2013-01-31 10:29:00,39.7,21.2,29.69,West,272,13.7,20.4,47,0.00,,BKN060,0.06,VWS V13.01,2013-01-31 15:29:00,
2013-01-31 10:34:00,39.7,21.2,29.69,West,263,15.9,19.3,47,0.00,,BKN060,0.06,VWS V13.01,2013-01-31 15:34:00,
2013-01-31 10:39:00,40.1,21.5,29.69,WSW,247,15.4,17.6,47,0.00,,BKN060,0.06,VWS V13.01,2013-01-31 15:39:00,
2013-01-31 10:44:00,40.8,22.2,29.69,WSW,237,17.1,19.3,47,0.00,,BKN065,0.06,VWS V13.01,2013-01-31 15:44:00,
2013-01-31 10:49:00,41.4,22.7,29.69,West,270,13.7,18.7,47,0.00,,BKN065,0.06,VWS V13.01,2013-01-31 15:49:00,
2013-01-31 10:54:00,41.0,22.3,29.69,West,278,15.9,19.9,47,0.00,,BKN065,0.06,VWS V13.01,2013-01-31 15:54:00,
2013-01-31 10:59:00,40.8,22.2,29.69,West,263,12.0,15.9,47,0.00,,BKN065,0.06,VWS V13.01,2013-01-31 15:59:00,
2013-01-31 11:04:00,41.0,22.3,29.69,West,265,13.1,24.0,47,0.00,,OVC060,0.06,VWS V13.01,2013-01-31 16:04:00,
2013-01-31 11:09:00,41.2,22.5,29.69,WSW,255,10.9,18.2,47,0.00,,OVC060,0.06,VWS V13.01,2013-01-31 16:09:00,
2013-01-31 11:14:00,40.8,22.2,29.69,SW,221,12.0,15.4,47,0.00,,OVC060,0.06,VWS V13.01,2013-01-31 16:14:00,
2013-01-31 11:19:00,40.6,22.0,29.69,SW,229,19.3,19.3,47,0.00,,OVC060,0.06,VWS V13.01,2013-01-31 16:19:00,
2013-01-31 11:24:00,39.9,21.3,29.69,WSW,256,10.9,10.9,47,0.00,,OVC065,0.06,VWS V13.01,2013-01-31 16:24:00,
2013-01-31 11:29:00,39.6,21.0,29.69,WSW,239,21.3,21.8,47,0.00,,OVC065,0.06,VWS V13.01,2013-01-31 16:29:00,
2013-01-31 11:34:00,39.7,21.2,29.69,West,279,10.3,14.8,47,0.00,,OVC065,0.06,VWS V13.01,2013-01-31 16:34:00,
2013-01-31 11:39:00,39.9,21.3,29.69,West,263,10.1,15.9,47,0.00,,OVC065,0.06,VWS V13.01,2013-01-31 16:39:00,
2013-01-31 11:44:00,40.6,22.0,29.69,WSW,256,15.9,16.5,47,0.00,,BKN060,0.06,VWS V13.01,2013-01-31 16:44:00,
2013-01-31 11:49:00,41.0,22.3,29.69,WSW,258,13.7,21.3,47,0.00,,BKN060,0.06,VWS V13.01,2013-01-31 16:49:00,
2013-01-31 11:54:00,40.1,21.5,29.72,West,273,16.5,21.3,47,0.00,,BKN060,0.06,VWS V13.01,2013-01-31 16:54:00,
2013-01-31 11:59:00,38.8,20.4,29.72,West,268,13.7,24.6,47,0.00,,BKN060,0.06,VWS V13.01,2013-01-31 16:59:00,
2013-01-31 12:04:00,38.1,19.7,29.72,WSW,244,16.5,18.7,47,0.00,,OVC065,0.06,VWS V13.01,2013-01-31 17:04:00,
2013-01-31 12:09:00,38.1,19.7,29.72,West,264,10.9,13.7,47,0.00,,OVC065,0.06,VWS V13.01,2013-01-31 17:09:00,
2013-01-31 12:14:00,39.0,20.5,29.72,West,278,16.5,24.6,47,0.00,,OVC065,0.06,VWS V13.01,2013-01-31 17:14:00,
2013-01-31 12:19:00,40.1,21.5,29.72,WSW,250,15.9,21.8,47,0.00,,OVC065,0.06,VWS V13.01,2013-01-31 17:19:00,
2013-01-31 12:24:00,40.1,21.5,29.72,WSW,252,21.0,21.8,47,0.00,,SCT060,0.06,VWS V13.01,2013-01-31 17:24:00,
2013-01-31 12:29:00,40.1,21.5,29.72,West,269,20.4,27.4,47,0.00,,SCT060,0.06,VWS V13.01,2013-01-31 17:29:00,
2013-01-31 12:34:00,40.1,21.5,29.72,WSW,239,13.1,20.4,47,0.00,,SCT060,0.06,VWS V13.01,2013-01-31 17:34:00,
2013-01-31 12:39:00,40.1,21.5,29.72,WSW,248,21.8,21.8,47,0.00,,SCT060,0.06,VWS V13.01,2013-01-31 17:39:00,
2013-01-31 12:44:00,39.2,20.7,29.72,West,266,12.0,17.6,47,0.00,,SCT049,0.06,VWS V13.01,2013-01-31 17:44:00,
2013-01-31 12:49:00,37.9,19.5,29.72,West,278,10.3,18.2,47,0.00,,SCT049,0.06,VWS V13.01,2013-01-31 17:49:00,
2013-01-31 12:54:00,37.0,19.2,29.72,West,260,10.9,13.7,48,0.00,,SCT049,0.06,VWS V13.01,2013-01-31 17:54:00,
2013-01-31 12:59:00,36.7,18.9,29.72,WSW,257,16.5,18.2,48,0.00,,SCT049,0.06,VWS V13.01,2013-01-31 17:59:00,
2013-01-31 13:04:00,36.5,18.7,29.72,WNW,292,10.3,13.1,48,0.00,,SCT070,0.06,VWS V13.01,2013-01-31 18:04:00,
2013-01-31 13:09:00,36.7,18.9,29.72,WSW,256,7.8,12.0,48,0.00,,SCT070,0.06,VWS V13.01,2013-01-31 18:09:00,
2013-01-31 13:14:00,36.9,19.0,29.72,NW,312,13.1,13.1,48,0.00,,SCT070,0.06,VWS V13.01,2013-01-31 18:14:00,
2013-01-31 13:19:00,36.7,18.9,29.72,West,268,7.3,7.8,48,0.00,,SCT070,0.06,VWS V13.01,2013-01-31 18:19:00,
2013-01-31 13:24:00,36.7,18.9,29.69,WSW,253,13.7,19.3,48,0.00,,BKN070,0.06,VWS V13.01,2013-01-31 18:24:00,
2013-01-31 13:29:00,36.7,18.9,29.69,WSW,253,10.9,19.9,48,0.00,,BKN070,0.06,VWS V13.01,2013-01-31 18:29:00,
2013-01-31 13:34:00,36.5,18.7,29.69,West,274,13.1,19.3,48,0.00,,BKN070,0.06,VWS V13.01,2013-01-31 18:34:00,
2013-01-31 13:39:00,36.3,18.5,29.72,WSW,248,9.5,9.5,48,0.00,,BKN070,0.06,VWS V13.01,2013-01-31 18:39:00,
2013-01-31 13:44:00,36.3,18.5,29.72,West,262,12.6,13.7,48,0.00,,BKN060,0.06,VWS V13.01,2013-01-31 18:44:00,
2013-01-31 13:49:00,36.1,18.4,29.72,West,277,11.5,15.9,48,0.00,,BKN060,0.06,VWS V13.01,2013-01-31 18:49:00,
2013-01-31 13:54:00,35.8,18.0,29.72,West,259,10.1,13.1,48,0.00,,BKN060,0.06,VWS V13.01,2013-01-31 18:54:00,
2013-01-31 13:59:00,35.6,17.9,29.72,West,271,13.1,13.1,48,0.00,,BKN060,0.06,VWS V13.01,2013-01-31 18:59:00,
2013-01-31 14:04:00,35.4,17.7,29.72,West,260,10.9,13.7,48,0.00,,BKN065,0.06,VWS V13.01,2013-01-31 19:04:00,
2013-01-31 14:09:00,35.4,17.7,29.72,WSW,256,6.2,9.5,48,0.00,,BKN065,0.06,VWS V13.01,2013-01-31 19:09:00,
2013-01-31 14:14:00,35.6,17.9,29.72,West,263,17.1,17.1,48,0.00,,BKN065,0.06,VWS V13.01,2013-01-31 19:14:00,
2013-01-31 14:19:00,35.4,17.7,29.72,West,259,9.5,21.8,48,0.00,,BKN065,0.06,VWS V13.01,2013-01-31 19:19:00,
2013-01-31 14:24:00,35.4,17.7,29.72,West,266,10.1,15.4,48,0.00,,OVC070,0.06,VWS V13.01,2013-01-31 19:24:00,
2013-01-31 14:29:00,35.4,17.7,29.72,WSW,251,10.3,13.7,48,0.00,,OVC070,0.06,VWS V13.01,2013-01-31 19:29:00,
2013-01-31 14:34:00,35.4,17.7,29.72,WNW,294,6.2,15.4,48,0.00,,OVC070,0.06,VWS V13.01,2013-01-31 19:34:00,
2013-01-31 14:39:00,35.6,17.9,29.75,WSW,245,10.1,15.4,48,0.00,,BKN060,0.06,VWS V13.01,2013-01-31 19:39:00,
2013-01-31 14:44:00,35.6,17.9,29.75,West,277,10.9,15.9,48,0.00,,BKN060,0.06,VWS V13.01,2013-01-31 19:44:00,
2013-01-31 14:49:00,35.8,18.0,29.75,WSW,244,7.8,14.8,48,0.00,,BKN060,0.06,VWS V13.01,2013-01-31 19:49:00,
2013-01-31 14:54:00,36.0,18.2,29.75,West,275,18.2,18.2,48,0.00,,BKN060,0.06,VWS V13.01,2013-01-31 19:54:00,
2013-01-31 14:59:00,36.3,18.5,29.75,West,263,18.7,18.7,48,0.00,,BKN060,0.06,VWS V13.01,2013-01-31 19:59:00,
2013-01-31 15:04:00,36.7,18.9,29.75,WSW,239,12.6,22.9,48,0.00,,OVC065,0.06,VWS V13.01,2013-01-31 20:04:00,
2013-01-31 15:09:00,37.0,19.2,29.75,West,273,13.1,18.7,48,0.00,,OVC065,0.06,VWS V13.01,2013-01-31 20:09:00,
2013-01-31 15:14:00,36.9,19.0,29.75,West,271,19.3,22.9,48,0.00,,OVC065,0.06,VWS V13.01,2013-01-31 20:14:00,
2013-01-31 15:19:00,36.1,18.4,29.75,WSW,248,13.7,19.3,48,0.00,,OVC065,0.06,VWS V13.01,2013-01-31 20:19:00,
2013-01-31 15:24:00,35.8,18.0,29.75,WNW,283,7.3,15.9,48,0.00,,OVC065,0.06,VWS V13.01,2013-01-31 20:24:00,
2013-01-31 15:29:00,35.4,17.7,29.75,West,268,13.1,16.5,48,0.00,,OVC065,0.06,VWS V13.01,2013-01-31 20:29:00,
2013-01-31 15:34:00,34.9,17.2,29.75,WSW,256,7.8,18.7,48,0.00,,OVC065,0.06,VWS V13.01,2013-01-31 20:34:00,
2013-01-31 15:39:00,34.5,16.9,29.75,West,262,11.5,21.0,48,0.00,,OVC065,0.06,VWS V13.01,2013-01-31 20:39:00,
2013-01-31 15:44:00,34.5,16.9,29.75,West,263,7.8,16.5,48,0.00,,OVC070,0.06,VWS V13.01,2013-01-31 20:44:00,
2013-01-31 15:49:00,34.3,16.7,29.75,WSW,251,9.5,10.1,48,0.00,,OVC070,0.06,VWS V13.01,2013-01-31 20:49:00,
2013-01-31 15:54:00,34.5,16.9,29.75,WSW,251,10.3,15.9,48,0.00,,OVC070,0.06,VWS V13.01,2013-01-31 20:54:00,
2013-01-31 15:59:00,34.3,16.7,29.75,WSW,237,10.3,19.3,48,0.00,,OVC070,0.06,VWS V13.01,2013-01-31 20:59:00,
2013-01-31 16:04:00,34.3,16.7,29.75,West,265,10.3,13.1,48,0.00,,OVC065,0.06,VWS V13.01,2013-01-31 21:04:00,
2013-01-31 16:09:00,34.2,16.5,29.78,SW,230,10.1,13.1,48,0.00,,OVC065,0.06,VWS V13.01,2013-01-31 21:09:00,
2013-01-31 16:14:00,34.0,16.4,29.78,West,272,15.4,19.3,48,0.00,,OVC065,0.06,VWS V13.01,2013-01-31 21:14:00,
2013-01-31 16:19:00,33.8,16.2,29.78,West,264,14.8,14.8,48,0.00,,OVC065,0.06,VWS V13.01,2013-01-31 21:19:00,
2013-01-31 16:24:00,33.6,16.5,29.78,West,273,6.7,12.6,49,0.00,,OVC070,0.06,VWS V13.01,2013-01-31 21:24:00,
2013-01-31 16:29:00,33.4,16.4,29.78,West,265,6.2,9.5,49,0.00,,OVC070,0.06,VWS V13.01,2013-01-31 21:29:00,
2013-01-31 16:34:00,33.3,16.2,29.78,WSW,243,9.5,10.1,49,0.00,,OVC070,0.06,VWS V13.01,2013-01-31 21:34:00,
2013-01-31 16:39:00,33.3,16.2,29.78,WSW,254,7.3,7.3,49,0.00,,OVC060,0.06,VWS V13.01,2013-01-31 21:39:00,
2013-01-31 16:44:00,33.1,16.0,29.78,West,259,7.8,15.9,49,0.00,,OVC060,0.06,VWS V13.01,2013-01-31 21:44:00,
2013-01-31 16:49:00,33.3,16.2,29.78,WNW,290,10.1,13.1,49,0.00,,OVC060,0.06,VWS V13.01,2013-01-31 21:49:00,
2013-01-31 16:54:00,33.3,16.2,29.78,West,280,7.8,10.3,49,0.00,,OVC060,0.06,VWS V13.01,2013-01-31 21:54:00,
2013-01-31 17:41:00,32.2,15.2,29.81,WSW,254,7.3,7.3,49,0.00,,OVC060,0.02,VWS V13.01,2013-01-31 22:41:00,
2013-01-31 17:46:00,32.2,15.2,29.81,WSW,253,10.1,13.7,49,0.00,,OVC065,0.06,VWS V13.01,2013-01-31 22:46:00,
2013-01-31 17:51:00,32.0,15.0,29.81,WNW,287,13.1,13.7,49,0.00,,OVC065,0.06,VWS V13.01,2013-01-31 22:51:00,
2013-01-31 17:56:00,31.8,14.9,29.81,West,262,10.3,10.3,49,0.00,,OVC065,0.06,VWS V13.01,2013-01-31 22:56:00,
2013-01-31 18:01:00,31.6,14.7,29.81,West,264,11.5,18.7,49,0.00,,OVC065,0.06,VWS V13.01,2013-01-31 23:01:00,
2013-01-31 18:06:00,31.5,14.5,29.81,WSW,257,10.9,14.3,49,0.00,,BKN065,0.06,VWS V13.01,2013-01-31 23:06:00,
2013-01-31 18:11:00,31.3,14.4,29.81,West,271,7.8,8.9,49,0.00,,BKN065,0.06,VWS V13.01,2013-01-31 23:11:00,
2013-01-31 18:16:00,31.1,14.2,29.81,SW,229,13.7,13.7,49,0.00,,BKN070,0.06,VWS V13.01,2013-01-31 23:16:00,
2013-01-31 18:21:00,31.1,14.2,29.81,West,265,15.4,16.5,49,0.00,,BKN070,0.06,VWS V13.01,2013-01-31 23:21:00,
2013-01-31 18:26:00,31.5,14.5,29.81,WSW,238,13.1,18.7,49,0.00,,BKN070,0.06,VWS V13.01,2013-01-31 23:26:00,
2013-01-31 18:31:00,31.5,14.5,29.81,WNW,285,9.5,14.3,49,0.00,,BKN070,0.06,VWS V13.01,2013-01-31 23:31:00,
2013-01-31 18:36:00,31.5,14.5,29.84,West,265,15.9,18.2,49,0.00,,BKN070,0.06,VWS V13.01,2013-01-31 23:36:00,
2013-01-31 18:41:00,31.5,14.5,29.84,WSW,244,7.8,10.9,49,0.00,,BKN070,0.06,VWS V13.01,2013-01-31 23:41:00,
2013-01-31 18:46:00,31.3,14.4,29.84,WSW,258,7.3,9.5,49,0.00,,BKN070,0.06,VWS V13.01,2013-01-31 23:46:00,
2013-01-31 18:51:00,31.1,14.2,29.84,WSW,254,12.6,18.7,49,0.00,,BKN070,0.06,VWS V13.01,2013-01-31 23:51:00,
2013-01-31 18:56:00,31.1,14.2,29.84,West,278,5.0,12.0,49,0.00,,BKN070,0.06,VWS V13.01,2013-01-31 23:56:00,
2013-01-31 19:01:00,30.9,14.0,29.84,SW,232,9.5,10.9,49,0.00,,BKN060,0.06,VWS V13.01,2013-02-01 00:01:00,
2013-01-31 19:06:00,30.7,13.9,29.84,WSW,256,7.3,7.8,49,0.00,,BKN060,0.06,VWS V13.01,2013-02-01 00:06:00,
2013-01-31 19:11:00,30.7,13.9,29.84,West,276,8.9,10.3,49,0.00,,BKN060,0.06,VWS V13.01,2013-02-01 00:11:00,
2013-01-31 19:16:00,30.7,13.9,29.84,WSW,252,5.0,7.8,49,0.00,,BKN060,0.06,VWS V13.01,2013-02-01 00:16:00,
2013-01-31 19:21:00,30.6,13.7,29.84,WNW,294,13.7,15.9,49,0.00,,BKN060,0.06,VWS V13.01,2013-02-01 00:21:00,
2013-01-31 19:26:00,30.6,13.7,29.84,West,260,10.1,13.7,49,0.00,,BKN060,0.06,VWS V13.01,2013-02-01 00:26:00,
2013-01-31 19:31:00,30.6,13.7,29.84,West,265,15.4,15.4,49,0.00,,BKN060,0.06,VWS V13.01,2013-02-01 00:31:00,
2013-01-31 19:36:00,30.6,13.7,29.84,West,264,10.9,13.1,49,0.00,,BKN060,0.06,VWS V13.01,2013-02-01 00:36:00,
2013-01-31 19:41:00,30.6,13.7,29.84,WSW,238,7.8,10.1,49,0.00,,BKN060,0.06,VWS V13.01,2013-02-01 00:41:00,
2013-01-31 19:46:00,30.2,13.4,29.84,South,191,4.5,10.3,49,0.00,,BKN060,0.06,VWS V13.01,2013-02-01 00:46:00,
2013-01-31 19:51:00,30.0,13.2,29.84,WSW,249,10.1,12.0,49,0.00,,BKN060,0.06,VWS V13.01,2013-02-01 00:51:00,
2013-01-31 19:56:00,30.0,13.2,29.84,West,276,5.0,7.8,49,0.00,,SCT047,0.06,VWS V13.01,2013-02-01 00:56:00,
2013-01-31 20:01:00,29.8,13.0,29.84,WSW,243,12.6,12.6,49,0.00,,SCT047,0.06,VWS V13.01,2013-02-01 01:01:00,
2013-01-31 20:06:00,29.8,13.0,29.84,WSW,244,7.8,9.5,49,0.00,,SCT047,0.06,VWS V13.01,2013-02-01 01:06:00,
2013-01-31 20:11:00,29.7,12.9,29.84,West,270,7.8,7.8,49,0.00,,SCT047,0.06,VWS V13.01,2013-02-01 01:11:00,
2013-01-31 20:16:00,29.5,12.7,29.84,WSW,247,7.8,10.3,49,0.00,,SCT047,0.06,VWS V13.01,2013-02-01 01:16:00,
2013-01-31 20:21:00,29.5,12.7,29.84,WNW,289,6.2,10.1,49,0.00,,SCT048,0.06,VWS V13.01,2013-02-01 01:21:00,
2013-01-31 20:26:00,29.5,12.7,29.84,WSW,255,5.0,7.3,49,0.00,,SCT048,0.06,VWS V13.01,2013-02-01 01:26:00,
2013-01-31 20:31:00,29.5,12.7,29.84,WSW,254,6.7,7.3,49,0.00,,SCT048,0.06,VWS V13.01,2013-02-01 01:31:00,
2013-01-31 20:36:00,29.3,12.5,29.84,WSW,256,7.3,7.3,49,0.00,,SCT048,0.06,VWS V13.01,2013-02-01 01:36:00,
2013-01-31 20:41:00,29.3,12.5,29.84,SSW,208,4.5,6.7,49,0.00,,BKN050,0.06,VWS V13.01,2013-02-01 01:41:00,
2013-01-31 20:50:00,29.1,12.4,29.84,WSW,252,5.0,5.0,49,0.00,,BKN050,0.02,VWS V13.01,2013-02-01 01:50:00,
2013-01-31 20:55:00,29.1,12.4,29.84,West,262,7.8,7.8,49,0.00,,BKN050,0.06,VWS V13.01,2013-02-01 01:55:00,
2013-01-31 21:02:00,28.9,12.2,29.84,WSW,247,2.8,2.8,49,0.00,,BKN050,0.02,VWS V13.01,2013-02-01 02:02:00,
2013-01-31 21:07:00,28.9,12.2,29.84,WSW,241,5.0,6.2,49,0.00,,OVC050,0.06,VWS V13.01,2013-02-01 02:07:00,
2013-01-31 21:12:00,28.8,12.0,29.84,SW,229,5.0,5.0,49,0.00,,OVC050,0.06,VWS V13.01,2013-02-01 02:12:00,
2013-01-31 21:17:00,28.8,12.0,29.84,West,263,4.5,10.3,49,0.00,,OVC050,0.06,VWS V13.01,2013-02-01 02:17:00,
2013-01-31 21:22:00,28.9,12.2,29.84,WSW,256,5.0,8.9,49,0.00,,OVC050,0.06,VWS V13.01,2013-02-01 02:22:00,
2013-01-31 21:27:00,29.1,12.4,29.84,SW,230,4.5,9.5,49,0.00,,OVC050,0.06,VWS V13.01,2013-02-01 02:27:00,
2013-01-31 21:32:00,29.1,12.4,29.84,West,268,6.7,7.8,49,0.00,,OVC050,0.06,VWS V13.01,2013-02-01 02:32:00,
2013-01-31 21:37:00,29.1,12.4,29.84,West,271,5.0,7.8,49,0.00,,OVC050,0.06,VWS V13.01,2013-02-01 02:37:00,
2013-01-31 21:42:00,29.1,12.4,29.84,SSW,202,7.3,7.3,49,0.00,,BKN050,0.06,VWS V13.01,2013-02-01 02:42:00,
2013-01-31 21:47:00,29.1,12.4,29.84,WSW,237,3.4,5.0,49,0.00,,BKN050,0.06,VWS V13.01,2013-02-01 02:47:00,
2013-01-31 21:52:00,29.1,12.4,29.84,WSW,253,3.4,6.2,49,0.00,,BKN050,0.06,VWS V13.01,2013-02-01 02:52:00,
2013-01-31 21:57:00,29.1,12.4,29.84,SSW,213,3.4,5.0,49,0.00,,BKN050,0.06,VWS V13.01,2013-02-01 02:57:00,
2013-01-31 22:02:00,29.1,12.4,29.84,WSW,251,3.9,6.2,49,0.00,,SCT060,0.06,VWS V13.01,2013-02-01 03:02:00,
2013-01-31 22:07:00,29.1,12.4,29.84,SW,224,3.9,3.9,49,0.00,,SCT060,0.06,VWS V13.01,2013-02-01 03:07:00,
2013-01-31 22:12:00,29.1,12.4,29.84,SSW,211,3.4,5.0,49,0.00,,SCT060,0.06,VWS V13.01,2013-02-01 03:12:00,
2013-01-31 22:17:00,29.1,12.4,29.84,WSW,240,2.8,5.0,49,0.00,,SCT060,0.06,VWS V13.01,2013-02-01 03:17:00,
2013-01-31 22:22:00,28.8,12.0,29.84,SW,234,6.7,6.7,49,0.00,,SCT060,0.06,VWS V13.01,2013-02-01 03:22:00,
2013-01-31 22:27:00,28.8,12.0,29.84,West,271,3.9,3.9,49,0.00,,SCT060,0.06,VWS V13.01,2013-02-01 03:27:00,
2013-01-31 22:32:00,28.6,11.9,29.84,South,176,3.4,3.4,49,0.00,,SCT060,0.06,VWS V13.01,2013-02-01 03:32:00,
2013-01-31 22:37:00,28.6,11.9,29.84,SW,225,3.4,4.5,49,0.00,,SCT060,0.06,VWS V13.01,2013-02-01 03:37:00,
2013-01-31 22:42:00,28.8,12.0,29.84,SSW,201,0.0,3.9,49,0.00,,SCT060,0.06,VWS V13.01,2013-02-01 03:42:00,
2013-01-31 22:47:00,28.9,12.2,29.84,WSW,242,3.4,6.7,49,0.00,,SCT060,0.06,VWS V13.01,2013-02-01 03:47:00,
2013-01-31 22:52:00,29.1,12.4,29.84,SW,236,0.0,3.4,49,0.00,,SCT060,0.06,VWS V13.01,2013-02-01 03:52:00,
2013-01-31 22:57:00,29.3,12.5,29.84,SW,231,0.0,0.0,49,0.00,,SCT060,0.06,VWS V13.01,2013-02-01 03:57:00,
2013-01-31 23:02:00,29.3,12.5,29.84,SSW,196,2.8,5.0,49,0.00,,OVC065,0.06,VWS V13.01,2013-02-01 04:02:00,
2013-01-31 23:07:00,29.3,12.5,29.84,SSW,210,0.0,0.0,49,0.00,,OVC065,0.06,VWS V13.01,2013-02-01 04:07:00,
2013-01-31 23:12:00,29.3,12.5,29.84,South,182,0.0,0.0,49,0.00,,OVC065,0.06,VWS V13.01,2013-02-01 04:12:00,
2013-01-31 23:17:00,29.1,12.4,29.84,South,178,0.0,4.5,49,0.00,,OVC065,0.06,VWS V13.01,2013-02-01 04:17:00,
2013-01-31 23:22:00,28.9,12.2,29.84,SW,231,0.0,3.9,49,0.00,,BKN065,0.06,VWS V13.01,2013-02-01 04:22:00,
2013-01-31 23:27:00,28.8,12.0,29.84,South,184,2.8,3.9,49,0.00,,BKN065,0.06,VWS V13.01,2013-02-01 04:27:00,
2013-01-31 23:32:00,28.8,12.0,29.84,South,175,3.4,5.0,49,0.00,,BKN065,0.06,VWS V13.01,2013-02-01 04:32:00,
2013-01-31 23:37:00,28.6,11.9,29.84,SSW,210,3.4,6.2,49,0.00,,BKN065,0.06,VWS V13.01,2013-02-01 04:37:00,
2013-01-31 23:42:00,28.6,11.9,29.84,South,179,4.5,4.5,49,0.00,,OVC065,0.06,VWS V13.01,2013-02-01 04:42:00,
2013-01-31 23:47:00,28.6,11.9,29.84,SSE,166,6.7,6.7,49,0.00,,OVC065,0.06,VWS V13.01,2013-02-01 04:47:00,
2013-01-31 23:52:00,28.6,11.9,29.81,SSW,195,3.4,4.5,49,0.00,,OVC065,0.06,VWS V13.01,2013-02-01 04:52:00,
2013-01-31 23:57:00,28.6,11.9,29.81,South,169,0.0,2.8,49,0.00,,OVC065,0.06,VWS V13.01,2013-02-01 04:57:00,